This is the latest recevied weather packets stored in our database for station/object K1WJY. If no packets are shown the sender has not sent any weather packets the latest 10 day(s).
| Time | Temp. | Humidity | Pressure | Rain* | Wind** | Luminosity | Snow |
|---|---|---|---|---|---|---|---|
| 1787527398 | 18.89° C | 99% | 1012.2 hPa | 0 mm | - | 1 W/m² | - |
| 1787527093 | 18.89° C | 99% | 1012.2 hPa | 0 mm | - | 3 W/m² | - |
| 1787526788 | 18.89° C | 99% | 1012.1 hPa | 0 mm | - | 3 W/m² | - |
| 1787526485 | 18.89° C | 99% | 1012 hPa | 0 mm | - | 5 W/m² | - |
| 1787526181 | 18.89° C | 99% | 1011.8 hPa | 0 mm | - | 10 W/m² | - |
| 1787525877 | 18.89° C | 99% | 1011.8 hPa | 0 mm | - | 14 W/m² | - |
| 1787525572 | 18.89° C | 99% | 1012 hPa | 0 mm | - | 21 W/m² | - |
| 1787525272 | 19.44° C | 99% | 1012.1 hPa | 0 mm | - | 23 W/m² | - |
| 1787524970 | 18.89° C | 99% | 1012 hPa | 0 mm | - | 25 W/m² | - |
| 1787524668 | 18.89° C | 99% | 1011.7 hPa | 0 mm | - | 42 W/m² | - |
| 1787524364 | 18.89° C | 99% | 1012 hPa | 0 mm | - | 47 W/m² | - |
| 1787524064 | 19.44° C | 99% | 1011.9 hPa | 0 mm | - | 68 W/m² | - |
| 1787523761 | 20° C | 99% | 1011.9 hPa | 0 mm | - | 111 W/m² | - |
| 1787523460 | 19.44° C | 99% | 1012.1 hPa | 0 mm | - | 74 W/m² | - |
| 1787523156 | 19.44° C | 99% | 1012.2 hPa | 0 mm | - | 79 W/m² | - |
| 1787522851 | 18.89° C | 99% | 1012 hPa | 0 mm | - | 79 W/m² | - |
| 1787522548 | 19.44° C | 99% | 1012.2 hPa | 0 mm | - | 77 W/m² | - |
| 1787522247 | 19.44° C | 99% | 1012.3 hPa | 0 mm | - | 70 W/m² | - |
| 1787521943 | 19.44° C | 99% | 1012.7 hPa | 0 mm | - | 39 W/m² | - |
| 1787521642 | 19.44° C | 99% | 1012.6 hPa | 0 mm | - | 41 W/m² | - |
| 1787521341 | 18.89° C | 99% | 1012.4 hPa | 0 mm | - | 82 W/m² | - |
| 1787521036 | 18.89° C | 99% | 1012.4 hPa | 1.78 mm | - | 72 W/m² | - |
| 1787520733 | 18.89° C | 99% | 1012.7 hPa | 10.67 mm | - | 42 W/m² | - |
| 1787520433 | 19.44° C | 99% | 1012.6 hPa | 8.89 mm | - | 26 W/m² | - |
| 1787520129 | 19.44° C | 99% | 1012.8 hPa | 10.67 mm | - | 54 W/m² | - |
* Rain latest hour (hover to see other rain measurements)
** Current wind speed in m/s (hover to see current wind gust speed)